Hill City, KS

4:35 AM CST on December 14, 2017 (GMT -0600)
Hill City Municipal

Weather History for KHLC - October, 2011

Change the Weather History Date:

Sunday, October 16, 2011

  Actual Average Record
Temperature  
Mean Temperature 54 °F 54 °F  
Max Temperature 66 °F 68 °F 93 °F (1908)
Min Temperature 41 °F 40 °F 24 °F (1943)
Degree Days  
Heating Degree Days 10    
Growing Degree Days 5 (Base 50)    
Moisture  
Dew Point 38 °F    
Average Humidity 55    
Maximum Humidity 86    
Minimum Humidity 38    
Precipitation  
Precipitation 0.00 in 0.06 in 0.02 in (1998)
Month to date precipitation 2.02 0.86  
Year to date precipitation 18.83 20.62  
Sea Level Pressure  
Sea Level Pressure 30.02 in    
Wind  
Wind Speed 10 mph (North)    
Max Wind Speed 20 mph    
Max Gust Speed 24 mph    
Visibility 10 miles    
Events      
T = Trace of Precipitation, MM = Missing Value Source: NWS Daily Summary

Daily Weather History Graph

Daily Weather History Graph

Search for Another Location

Airport or City:

Trip Planner

Search our weather history database for the weather conditions in past years. The results will help you decide how hot, cold, wet, or windy it might be!

Date:

Astronomy

Oct. 16, 2011 Rise Set
Actual Time 7:49 AM CDT 6:59 PM CDT
Civil Twilight 7:22 AM CDT 7:26 PM CDT
Nautical Twilight 6:51 AM CDT 7:57 PM CDT
Astronomical Twilight 6:20 AM CDT 8:28 PM CDT
Moon 9:48 PM CDT (10/16) 12:07 PM CDT (10/16)
Length of Visible Light 12h 03m
Length of Day
11h 09m
Waning Gibbous, 82% of the Moon is Illuminated
Oct 16
Waning Gibbous
Oct 19
Last Quarter
Oct 26
New
Nov 2
First Quarter
Nov 10
Full

Hourly Weather History & Observations

Time (CDT) Temp. Windchill Dew Point Humidity Pressure Visibility Wind Dir Wind Speed Gust Speed Precip Events Conditions
12:53 AM 66.0 °F - 43.0 °F 43% 29.77 in 10.0 mi SW 10.4 mph - N/A   Clear
1:53 AM 62.1 °F - 43.0 °F 50% 29.77 in 10.0 mi WSW 8.1 mph - N/A   Clear
2:53 AM 62.1 °F - 43.0 °F 50% 29.76 in 10.0 mi WSW 6.9 mph - N/A   Clear
3:53 AM 60.1 °F - 41.0 °F 49% 29.82 in 10.0 mi NNW 5.8 mph - N/A   Clear
4:53 AM 57.0 °F - 42.1 °F 57% 29.87 in 10.0 mi North 13.8 mph - N/A   Clear
5:53 AM 53.1 °F - 41.0 °F 64% 29.93 in 10.0 mi North 13.8 mph - N/A   Clear
6:53 AM 52.0 °F - 39.9 °F 63% 29.99 in 10.0 mi North 17.3 mph - N/A   Clear
7:53 AM 50.0 °F - 37.0 °F 61% 30.03 in 10.0 mi North 15.0 mph - N/A   Clear
8:53 AM 50.0 °F - 36.0 °F 59% 30.09 in 10.0 mi North 12.7 mph - N/A   Clear
9:53 AM 52.0 °F - 34.0 °F 50% 30.13 in 10.0 mi North 18.4 mph - N/A   Clear
10:53 AM 55.0 °F - 36.0 °F 49% 30.14 in 10.0 mi NNE 16.1 mph - N/A   Clear
11:53 AM 55.0 °F - 37.0 °F 51% 30.14 in 10.0 mi NNE 18.4 mph - N/A   Clear
12:53 PM 60.1 °F - 37.9 °F 44% 30.12 in 10.0 mi North 19.6 mph 24.2 mph N/A   Clear
1:53 PM 60.1 °F - 37.0 °F 42% 30.10 in 10.0 mi NNE 11.5 mph - N/A   Clear
2:53 PM 57.9 °F - 35.1 °F 42% 30.10 in 10.0 mi NNE 11.5 mph - N/A   Clear
3:53 PM 57.9 °F - 36.0 °F 44% 30.09 in 10.0 mi NNE 9.2 mph - N/A   Clear
4:53 PM 59.0 °F - 33.1 °F 38% 30.08 in 10.0 mi NNE 9.2 mph - N/A   Clear
5:53 PM 57.0 °F - 34.0 °F 42% 30.07 in 10.0 mi NE 8.1 mph - N/A   Clear
6:53 PM 55.0 °F - 37.0 °F 51% 30.07 in 10.0 mi ENE 3.5 mph - N/A   Clear
7:53 PM 51.1 °F - 37.9 °F 61% 30.08 in 10.0 mi Calm Calm - N/A   Clear
8:53 PM 48.9 °F - 39.9 °F 71% 30.07 in 10.0 mi Calm Calm - N/A   Clear
9:53 PM 46.9 °F - 39.0 °F 74% 30.06 in 10.0 mi Calm Calm - N/A   Clear
10:53 PM 44.1 °F 42.5 °F 37.9 °F 79% 30.06 in 10.0 mi NNW 3.5 mph - N/A   Clear
11:53 PM 41.0 °F 39.0 °F 37.0 °F 86% 30.07 in 10.0 mi West 3.5 mph - N/A   Clear